Espace membre
ImprimablePdf
Challenges > Delhalle - Butgenbach, 06/05/2006, BEL - Rund um den See
Liste des rapports > Delhalle - 21km - Classement scratch
Recherche: Page: [1] 2 3
447 Entrées
 
Les réclamations ne sont plus acceptées, les résultats sont considérés comme définitifs.
Catégorie
PosNrNomAgeIOCLigueEquipeRéelTempsTkmMoy.RangNomPtsLocalité
1.48DUPONT Eddy37BELONHOXY20001:13:471:13:483:31 17.071SEN1109ECAUSSINNES
2.9DEVEIRMAN Didier26BELCSFANTILOB1:14:161:14:173:33 16.962SEN1101BEERSEL
3.19VANDERSTRAETEN Patrick42BELVITATRAINING71:14:511:14:533:34 16.831VE11092TUBIZE
4.1190ALSTEENS Luc32BELAXA TEAM1:15:281:15:293:36 16.693SEN1082BEERSEL
5.1134VANDERBECK Yves38BELRIWARONVAU1:17:331:17:343:42 16.244SEN1051MALONNE
6.600CONIGLIO Lorenzo35BELUACDILAVILE1:19:551:19:573:49 15.765SEN1017
7.163NUTELET Carlos52BELCABWNAC1:20:171:20:193:50 15.691VE21012ECAUSSINES
8.2236VIJVERMAN Jan25BELEA1:21:191:21:213:53 15.496SEN997HAALTERT
9.411RODRIGUEZ Luis46BELCEPAL1:22:191:22:203:56 15.302VE1982TUBIZE
10.6HUYGHE Vincent43BELMOHATP VERT1:22:461:22:493:57 15.213VE1976JEMAPPES
11.2325ROHL Francis35BELSV BERGWACHT RO1:23:041:23:073:58 15.167SEN971
12.11DUBOIS Michel49BELHERV1:23:101:23:123:58 15.144VE1969WELKENRAEDT
13.1150MOENS Alain52BELKURISTO1:23:151:23:173:58 15.132VE2967KRAAINEM
14.388HERBET Henri44BELSPA1:23:161:23:193:59 15.125VE1966JALHAY
15.2034LANGER Stephan30BEL1:23:271:23:303:59 15.098SEN963ELSENBORN
16.1529LOMBART Frederic39BEL1:23:311:23:333:59 15.089SEN961GEMBLOUX
17.2057LANGER Pascal40BELSCBUTG1:23:561:23:584:00 15.016VE1955
18.1039SNAPS Jean-Francois45BELCABWNAC1:25:111:25:124:04 14.797VE1938NETHEN
19.1171HANUS Michel48BELUACBOUFFIOLS1:25:191:25:224:04 14.768VE1935ROSELIES
20.2054CONIGLIO Joseph38BELDILAVILE1:26:061:26:084:07 14.6310SEN925
21.541FILLEE Eric46BELUACDILAVILE1:26:171:26:194:07 14.609VE1922CHATELINEAU
22.1023FSMITH Julia-Frances37BELIXELTRAINING71:26:361:26:394:08 14.541DAM917GENVAL
23.2346BASTIN Samuel27BEL1:26:311:26:394:08 14.5411SEN917
24.2263SURKIJN Erik41BELDCLA1:27:051:27:084:09 14.4610VE1909
25.1631CADO Paul46BELFLEU1:27:231:27:264:10 14.4111VE1904LIGNY
26.271GERLACHE Mathieu41BELCE CDO1:27:301:27:314:11 14.4012VE1902DAUSSOULX
27.1296COLLOT Joseph42BELANTILOB1:27:381:27:414:11 14.3713VE1900GREZ-DOICEAU
28.2286BIGOT Pascal36BELCE CDO1:27:451:27:474:11 14.3512SEN898
29.1735UITDEBROEKS Romain56BELACA1:27:541:27:574:12 14.333VE2895ALKEN
30.675TRUYERS Hugo58BELDCLA1:28:161:28:194:13 14.274VE2890LINKHOUT
31.2223LUX Christian30BELSCBUTG1:28:261:28:344:14 14.2313SEN887BÜLLINGEN
32.3002CG69439 BEL1:28:251:28:344:14 14.231XXX886
33.2226MARCHAL Yves24BEL1:28:241:28:354:14 14.2214SEN886EUPEN
34.2237VILLERS Francis40BEL1:28:401:28:404:14 14.2114VE1882STAVELOT
35.364BOUVIER Victor31BELRCN1:28:321:28:564:15 14.1715SEN883BOUGE
36.57LUCCHESE Serge47BELAMAY1:28:561:28:594:15 14.1615VE1877AMAY
37.2352MILANTS Alain37BELDUURSPOR1:29:091:29:144:15 14.1216SEN873MERCHTEM
38.2358BUCHE Jean-Pascal34BEL1:29:111:29:234:16 14.1017SEN872
39.2308MEYS Guido35NLDACHILLESTOP1:29:311:29:374:17 14.0618SEN867BOCHOLTZ
40.131LEMAIRE Philippe40BELRONVAU1:29:341:29:384:17 14.0616VE1866LASNE
41.1814DECRAEMER Geert39BELSODIBURG1:29:501:29:544:17 14.0219SEN862BRUGGE
42.1172DIEPENDAELE Rudi43BELACLOJC MARIEMO1:30:101:30:144:18 13.9617VE1857LA HESTRE
43.2239THAETER Josef47BELLACE1:30:221:30:254:19 13.9418VE1854
44.2233VAN SEBROECK Bruno37BEL1:31:171:31:214:21 13.7920SEN842WEERDE
45.769LEMINEUR Vincent41BELRCN1:31:211:31:264:22 13.7819VE1840CHAMPION
46.2273KRINGS Gunter44BELSCBUTG1:31:231:31:304:22 13.7720VE1840
47.2031WATZLAWEK Stefan28DEUMC ESCHWEILER1:31:131:31:304:22 13.7721SEN841AACHEN
48.2003CELIS Paul51BELLIERNIJLENSE AV1:31:231:31:334:22 13.765VE2838NIJLEN
49.2258DIELENS David36BELLIERNIJLENSE AV1:31:381:31:494:23 13.7222SEN834
50.219DEWIT Raymond36BELAMAY1:31:531:31:564:23 13.7123SEN830WANZE
51.1151LANNOY Michel52BELAMAY1:32:031:32:064:24 13.686VE2828JEHAY
52.2048CLAAHSEN Ulrich51DEU1:32:081:32:144:24 13.667VE2826KALTHERHERBERG
53.2272MERTENS Jurgen42BELLACE1:32:041:32:174:24 13.6521VE1826EUPEN
54.2053HEINEN Danny34BELSCBUTG1:32:221:32:264:25 13.6324SEN822BUTGENBACH
55.2224MACKELS Daniel38BELSCBUTG1:32:491:32:564:26 13.5625SEN815ELSENBORN
56.906DELVAUX Paul62BELACACAMPFOOT1:33:031:33:064:26 13.531VE3812DIEPENBEEK
57.355ROBERTI Xavier23BELRFCL1:33:121:33:194:27 13.5026SEN809LIEGE
58.2314FLECOQ Francoise45BEL1:33:261:33:314:28 13.471AI1806MALMEDY
59.1211VAN DEN BROECK Raf53BELACA1:33:251:33:344:28 13.478VE2805HASSELT
60.2271GROTECLAES Edgar39BELLACELACE1:33:251:33:394:28 13.4527SEN805
61.521RAEYMAEKERS Ludovic52BELBVAC1:33:591:34:034:29 13.409VE2797MORTSEL
62.76LAFORGE Claude47BELHRCHRC1:34:111:34:134:30 13.3722VE1794WOLKRANGE
63.2013JAMAR Frédéric27BELSCBUTG1:33:581:34:134:30 13.3728SEN796WAIMES
64.314LEROY Patrick35BEL1:34:111:34:244:30 13.3529SEN793MARBEHAN
65.313FLEGRAND Francine36BEL1:34:291:34:314:31 13.332DAM788DAUSSOULX
66.1520MARLAIR Julien24BEL1:34:381:34:454:31 13.3030SEN786HOUYET
67.228MARCHAL Yves36BELRUN WILD1:34:541:34:584:32 13.2731SEN782VEDRIN
68.1278LORANT Manu44BEL1:34:571:35:074:32 13.2523VE1781MALONNE
69.223BOSCH Adrien15BELAMAY1:35:411:35:434:34 13.161ESP771VINALMONT
70.156DUMONT J.Luc49BELACLOST BERNARD1:35:381:35:464:34 13.1624VE1771LA LOUVIERE
71.727LEUS Stefan39BEL1:35:411:35:464:34 13.1632SEN770HOLSBEEK
72.384FDESMEDT Cindy28BELBEERS VL1:35:441:35:494:34 13.153DAM769BEERSEL
73.2221LEYSEN Eric42BELLIER1:36:031:36:144:35 13.0925VE1764NIJLEN
74.679MORONE Yves39BELARCHRCN1:36:081:36:184:36 13.0833SEN762HAMOIS
75.1844BILLY Jacques-Henry36BELHRC1:36:131:36:254:36 13.0734SEN761ARLON
76.387BOSKIN Bernard18BEL1:36:201:36:264:36 13.072ESP759STAVELOT
77.512CG26991 BEL1:36:221:36:284:36 13.062XXX758
78.1650NEYMAN Eric38BEL1:36:121:36:284:36 13.0635SEN759HERON
79.1392DE MASI Gianni53BELFLEU1:36:311:36:354:36 13.0510VE2754WANFARCEE BAULET
80.1341MICHA Pol54BELEPIDEMIE1:36:381:36:424:37 13.0311VE2752VOROUX-LEZ-LIERS
81.3008DF9GBWE BEL1:36:321:36:464:37 13.023XXX753
82.2280VERVOORT Willy55BELLIERNIJLENSE AV1:36:381:36:494:37 13.0112VE2751
83.2313VAN DYCK Dimitri27BEL1:36:381:36:594:38 12.9936SEN750MALMEDY
84.392FBRIALMONT Irene49BELSPASPA1:37:071:37:104:38 12.972AI1744SPA
85.1801PLASQUI Michel44BELLDLV1:37:111:37:204:39 12.9526VE1742ST JOSSE
86.2022ROOMANS Christian43BELLE JOUR VERVIER1:37:011:37:204:39 12.9527VE1743VERVIERS
87.240FONTAINE Bernard43BELIXELKURISTO1:37:241:37:274:39 12.9328VE1738BRUXELLES
88.1717FIGYS Koen33BELAXA TEAM1:37:231:37:314:39 12.9237SEN738OPWIJK
89.951FINK Edgar53BELSCBUTG1:37:301:37:434:40 12.8913VE2735ELSENBORN
90.2255HENDERYCKX Geert43BELLIERNIJLENSE AV1:37:521:38:034:41 12.8529VE1731KESSEL
90.2351WEY Marc39BELTEAM NELLES1:37:571:38:034:41 12.8538SEN730MALMEDY
92.193DI BIASE Renato41BELBOUFFIOLS1:37:441:38:034:41 12.8530VE1731COUILLET
93.584UBIETA Didier45BELAMAY1:38:121:38:144:41 12.8331VE1725VINALMONT
94.1883MAURO Calogero66BELSERSERUNNER1:38:091:38:144:41 12.832VE3725SERAING
95.1737DETROZ Luc45BELRCN1:38:071:38:174:41 12.8232VE1724VEDRIN
96.1614JANSSEN Serge39BEL1:38:151:38:214:41 12.8139SEN722FAULX-LES-TOMBES
97.2243FRERE Gilles34BEL1:38:251:38:294:42 12.7940SEN719VILLE-EN-HESBAYE
98.556RATINCKX Jean Philippe18BELRIWA1:38:281:38:334:42 12.793ESP718BIERGES
99.1333MARIEN Rik57BELVACH1:38:321:38:364:42 12.7814VE2716HASSELT
100.781OLIVIER Bob47BEL1:38:331:38:374:42 12.7833VE1716WAREMME
101.2335ROGIERS Arnout31BEL1:38:321:38:384:42 12.7741SEN715
102.2246ROZEIN Dieter40BELCLUB 13301:38:341:38:414:42 12.7734VE1714BUTGENBACH
103.2038WERKER Christian24DEU1:38:381:38:424:42 12.7742SEN712
104.1617PINDEVILLE Christian58BELRIWA1:38:381:38:434:43 12.7615VE2711WAVRE
105.2365DETRY Philippe50BELHFLE JOUR VERVIER1:38:301:38:494:43 12.7516VE2712VERVIERS
106.2362WINTGENS Luc48BEL1:38:301:38:494:43 12.7535VE1712JALHAY
107.2035FSCHWAN Claudia40BELGERMANIA EICHER1:38:471:38:554:43 12.743AI1708
108.385GONDA Gilbert55BELSERSERUNNER1:39:081:39:134:44 12.7017VE2703IVOZ-RAMET (FLEMALLE)
109.2257VAN HOL Patrick46BELLIERNIJLENSE AV1:39:041:39:154:44 12.7036VE1703KESSEL
110.2260SCHOMMERS Raymond50BELEIFELBIKER1:39:111:39:194:44 12.6918VE2701BUTGENBACH
111.2042BRANDENBURG Elmar41DEUTV KALTERHERBER1:39:281:39:354:45 12.6537VE1697MONSCHAU
112.2043FBRANDENBURG Irmgard40DEUTV KALTERHERBER1:39:291:39:354:45 12.654AI1696MONSCHAU
113.2311BORN René40BELSV HONSFELD1:39:371:39:464:46 12.6338VE1694BULLINGEN
114.2294COLLAS Jean-Luc30BELSV HONSFELD1:39:371:39:474:46 12.6343SEN693BULLINGEN
115.1991SPLINGARD Dominique46BELNACAMIS FB1:39:461:40:034:46 12.5939VE1691HAINE-ST-PIERRE
116.1639DEFRAENE Patrick44FRAANTILOB1:39:591:40:034:46 12.5940VE1687NODEBAIS
117.2259KISZA Christof49BELTSV ALEMANIA1:39:501:40:064:46 12.5941VE1688
118.2337PEIFFER Laurent27BEL1:39:501:40:104:47 12.5844SEN688HACHY
119.692ROBERT Michel56BELBOUFFIOLS1:40:001:40:194:47 12.5619VE2685GERPINNES
120.2302ROMBACH Rudolf39DEU1:40:071:40:274:47 12.5445SEN683MONSCHAU
121.2332WOLFF Berthold52BELLACE1:40:331:40:444:48 12.5120VE2678RAEREN
122.486CANIVET Roland59BELUACBOUFFIOLS1:40:341:40:534:49 12.4921VE2677NALINNES
123.1464DESSEILLE Ernest52BEL1:40:391:40:564:49 12.4822VE2675WEPION
124.1270VANWYMELBEKE Laurent35BELJCL1:40:551:41:004:49 12.4846SEN671DOTTIGNIES
125.2204DE MEYER Marnix49BELFLAC - ROESELAR1:40:391:41:004:49 12.4842VE1673RUMBEKE
126.2058WEYER Matthias46DEUNEIN1:41:021:41:084:49 12.4643VE1669DÜREN
127.1873BONJEAN Rene63BEL1:41:011:41:104:50 12.453VE3668WEPION
128.1815DIEUDONNE Emile53BELARCH1:40:431:41:114:50 12.4523VE2671DINANT
129.2216KRIER Benoit35BEL1:41:021:41:114:50 12.4547SEN666SELANGE
130.1992FDAMBLON Regine51BELACLOBJB1:41:061:41:124:50 12.451AI2665LA LOUVIERE
131.2266HILGERS Manuel21BEL1:41:121:41:214:50 12.4348SEN663
132.695DE DAPPER David33BEL1:41:221:41:254:50 12.4249SEN660
133.2334CRAMILLION Michel54BELTEAM 331:41:251:41:304:50 12.4124VE2659WELKENRAEDT
134.2327ANDRE Rene46BEL1:41:161:41:374:51 12.4044VE1660
135.2269BERTHET Alain48BEL1:41:241:41:424:51 12.3945VE1658DION VALMONT
136.2290BRAUN Christof39BEL1:41:301:41:504:51 12.3750SEN656
137.2210GLADIEUX Philip37BELSCBUTG1:41:531:42:034:52 12.3551SEN651WEYWERTZ
138.2208DESENFANTS Manfred38BELSCBUTG1:42:021:42:094:52 12.3352SEN649ELSENBORN
139.2306BASTEK Hermann55DEUTV ROETG1:41:571:42:114:52 12.3325VE2649ROETGEN
140.1434VASSART Quentin22BEL1:42:051:42:214:53 12.3153SEN647NAMUR
141.2331DECORTE Jeroen18BEL1:42:221:42:274:53 12.304ESP643
142.2279VERHAEGEN Eddy60LUXNIJLENSE AV1:42:271:42:394:54 12.274VE3641
143.2004CEUSTERS Patrick41BEL1:42:331:42:424:54 12.2746VE1639ROTSELAAR
144.2021POYSAT Georges46BELCAPNRB1:42:351:42:464:54 12.2647VE1638OUGREE
145.397FDEJMEK Paulina30BELCACE1:42:411:42:484:54 12.264DAM637BRUXELLES
146.2232VAN ELSUWE Kurt30BEL1:42:441:42:494:54 12.2554SEN635HOUWAART
147.1480BOUCHET Fabrice47BELHRC1:42:271:42:534:54 12.2548VE1637IZEL
148.1980VIDICK Jean-Luc53BEL1:42:511:42:554:55 12.2426VE2632BRUXELLES
149.907FDION Chantal55BELKURISTO1:42:521:42:564:55 12.242AI2632KRAAINEM
150.1162DUJARDIN Philippe25BEL1:42:501:42:584:55 12.2455SEN631VERVIERS
151.2301DAEL Fabrice27BEL1:42:511:42:584:55 12.2456SEN630
152.353VALCKX Geert43BELKAPUCIJN1:43:021:43:084:55 12.2249VE1627BERTEM
153.2037THEILE Manfred38DEUTV KONZEN1:42:571:43:124:55 12.2157SEN628
154.2046HANF Raymond56BELSCBUTG1:43:081:43:154:55 12.2027VE2625BUTGENBACH
155.837CEUPPENS Paul45BELHAMURABI1:43:091:43:264:56 12.1850VE1624LINT
156.2281BELMANS Alex54BELLIERNIJLENSE AV1:43:161:43:274:56 12.1828VE2622
157.1522FBELABBES Angelique32BELBINCEPAL1:43:251:43:294:56 12.185DAM620TERVUREN
158.2231STERCK Ronan51BEL1:43:251:43:294:56 12.1829VE2619
159.2307MULLENDER Serge44BELLACE1:43:141:43:304:56 12.1751VE1620
160.994LIGOT Alain51BELFOUL PLAIS1:43:081:43:404:57 12.1530VE2620HUY
161.20DEGROOT Jean58BELFCHA1:43:451:43:494:57 12.1431VE2613HANNUT
162.3004DA8XSNR BEL1:43:381:43:584:58 12.124XXX613
163.1855ALBERTANI Patrice53BELUACDILAVILE1:43:551:44:024:58 12.1132VE2610CHATELINEAU
164.2300SMETS Mathieu57BEL1:43:531:44:114:58 12.0933VE2609VAL MEER
165.2049KRIER Pierre52BEL1:43:571:44:144:58 12.0934VE2608LIEGE
166.2222LÖHR Dirk40DEU1:44:071:44:164:58 12.0852VE1605SIMMERATH
167.2065CURVERS Rudi44BELLA GAUME1:43:561:44:174:58 12.0853VE1607VIRTON
168.175HEINE Jean-Michel38BELEPIDEMIE1:43:501:44:184:58 12.0858SEN607WAREMME
169.2028VAN AEL Henri37BELLAC EUPEN1:44:031:44:194:59 12.0859SEN604EUPEN
170.2025TALMAS Olivier34BEL1:43:581:44:254:59 12.0760SEN604HENRI CHAPELLE
171.209GODEFRIDI Thierry55BEL1:44:191:44:264:59 12.0735VE2600RIXENSART
172.404TILBURGS Frank39BELAVN1:44:261:44:324:59 12.0561SEN598MEER
173.2070PHILIPPE Olivier13BELRCB1:44:331:44:334:59 12.055ESP595
174.923CEULEMANS Nicolas36BELANTILOB1:44:291:44:384:59 12.0462SEN595INCOURT
175.288HEINEN Henri62BELSERSERUNNER1:44:481:44:575:00 12.015VE3591SERAING
176.2253MEININGER Ulrich46BEL1:44:391:45:095:01 11.9854VE1592
177.446CALIFICE Stephane29BEL1:44:541:45:105:01 11.9863SEN589THIMISTER-CLERMONT
178.205RASSART Patrick48BELACLO1:45:231:45:315:02 11.9455VE1583MORLANWELZ
179.1122ZYLBERBERG Luc54BELJOGGANS1:45:231:45:365:02 11.9336VE2582BRUXELLES
180.2348VINCENT Xxx40BEL1:45:251:45:365:02 11.9356VE1581
181.2316DELARGE Jean-Yves35BELDACMJOGGANS1:45:231:45:375:02 11.9364SEN580BRUXELLES
182.2008FRIEDLA Edward46DEU1:45:311:45:475:03 11.9157VE1578AACHEN
183.1739RANDAXHE Francois51BELRFCL1:45:281:45:505:03 11.9137VE2578BEYNE HEUSAY
184.2219LEROY Philippe22BEL1:45:401:45:565:03 11.8965SEN575JALHAY
185.1256FRANCIS Rene73BELDCLA1:45:421:45:595:03 11.891VE4574HERENT
186.2278BOSSAETS Luc52BELNIJLENSE AV1:45:581:46:075:04 11.8738VE2571
187.2288FMERTENS Evelyne27BELSCBSCBUTG1:45:561:46:105:04 11.876DAM571BULLANGE
188.1503FBEL Linda42BELBRABO1:46:181:46:215:04 11.855AI1566BORGERHOUT
189.2256VERMEULEN Jozef59BELLIERNIJLENSE AV1:46:101:46:215:04 11.8539VE2566BERLAAR
190.755VAN HEULENBERGHE Frank50BEL1:46:111:46:255:05 11.8440VE2566GENT
191.199PIRLOT Andre55BELEPIDEMIE1:46:031:46:325:05 11.8341VE2566REMICOURT
192.498HEYNDRICKX Jan44BELKAPUCIJN1:46:291:46:355:05 11.8258VE1561BERTEM
193.2024SCHRÖTELER Stefan50DEUFC GERMANIA VOS1:46:231:46:375:05 11.8242VE2561HÜRTGENWALD
194.2285BOEMER Serge33BEL1:46:351:46:375:05 11.8266SEN559
195.1454MUYTJENS Rene61BELANTILOB1:46:251:46:425:05 11.816VE3560OTTIGNIES
196.1508DEVRIEZE Dirk51BELBRABO1:46:411:46:455:05 11.8043VE2556BERCHEM
197.673CAMPION Sylvain43BEL1:46:371:46:475:06 11.8059VE1556DIEPENBEEK
198.2045DAMOISEAUX Pascal41BELRCNRCN1:46:301:46:585:06 11.7860VE1556SAINT-SERVAIS
199.2059DEFLANDRE J.Marie43BELOLNE1:46:371:46:595:06 11.7861VE1554SOUMAGNE
200.2296THEISSEN Jurgen39BELTV KONZEN1:46:441:47:005:06 11.7867SEN552
DNF: abandon; DSQ: disqualifié; Vitesse en km/h